Regional Weather Roundup
Issued by NWS Sterling, VA

Home | Current Version | Previous Version | Text Only | Print | Product List | Glossary Off
Versions: 1 2 3 4 5 6 7 8 9 10 11 12 13 14 15 16 17 18 19 20 21 22 23 24 25 26 27 28 29 30 31 32 33 34 35 36 37 38 39 40 41 42 43 44 45 46 47 48 49 50

000
ASUS41 KLWX 282110
RWRLWX

REGIONAL WEATHER ROUNDUP
NATIONAL WEATHER SERVICE BALTIMORE MD/WASHINGTON DC
400 PM EST FRI NOV 28 2014

Note: "FAIR" indicates few or no clouds below 12,000 feet
with no significant weather and/or obstructions to visibility.
 TC=TEMPERATURE CELSIUS

 * =Non NWS site. Station does not report precipitation (e.g. rain,
    snow, etc.), thunder, or fog.

DCZ001-MDZ009-015-VAZ040>042-051-053>054-282200-
WASHINGTON METRO

CITY           SKY/WX    TMP DP  RH WIND       PRES   REMARKS
WASHINGTON NAT MOCLDY    39  17  41 W10       30.28S
DULLES         PTCLDY    36  19  50 NW7       30.28R
ANDREWS AFB    CLEAR     36  17  45 NW13      30.25S WCI  28
FT BELVOIR     PTCLDY    38  18  45 NW8       30.29R
QUANTICO       PTCLDY    40  18  41 N7        30.30R
COLLEGE PARK*  CLEAR     37  18  44 W7        30.27S
LEESBURG*      PTCLDY    36  23  60 NW13      30.27S WCI  27
MANASSAS*      PTCLDY    37  19  48 NW9       30.28S
GAITHERSBURG*  PTCLDY    34  16  47 W10       30.30R WCI  26

$$

MDZ006>007-011-014-282200-
BALTIMORE METRO

CITY           SKY/WX    TMP DP  RH WIND       PRES   REMARKS
BWI AIRPORT    PTCLDY    36  16  44 NW8       30.25S
MD SCIENCE CTR   N/A     36  14  40 MISG      30.25R
MARTIN STATE   PTCLDY    86  19   8 W14       30.28R
ANNAPOLIS      CLEAR     38  18  44 NW8       30.27R
FORT MEADE*    CLEAR     34  19  55 NW3       30.28S

$$

MDZ012-015-019>023-282200-
MARYLAND EASTERN SHORE

CITY           SKY/WX    TMP DP  RH WIND       PRES   REMARKS
OCEAN CITY     CLEAR     38  19  46 NW12      30.25R
SALISBURY      CLEAR     39  18  42 NW10      30.26R
BAY BRIDGE AP*   N/A     37  18  44 NW8       30.27S
CAMBRIDGE*     CLEAR     37  19  48 NW7       30.27R
EASTON*        PTCLDY    39  19  45 NW12G21   30.30R

$$

MDZ017>025-282200-
SOUTHERN MARYLAND

CITY           SKY/WX    TMP DP  RH WIND       PRES   REMARKS
PATUXENT RIVER MOCLDY    39  19  44 NW13      30.27R
ST INIGOES     PTCLDY    40  18  41 NW10G17   30.28R
LEONARDTOWN*   PTCLDY    37  19  48 NW5       30.29R

$$

MDZ003>005-282200-
NORTH CENTRAL MARYLAND

CITY           SKY/WX    TMP DP  RH WIND       PRES   REMARKS
FREDERICK*     PTCLDY    39  12  33 W9        30.29S
HAGERSTOWN APT CLEAR     34  16  47 NW9       30.24R WCI  27
WESTMINSTER*   CLEAR     34  18  51 W9        30.24R WCI  26

$$

MDZ501>502-282200-
WESTERN MARYLAND

CITY           SKY/WX    TMP DP  RH WIND       PRES   REMARKS
OAKLAND*       CLOUDY    21  21 100 W7        30.13F FOG
CUMBERLAND*    PTCLDY    32  18  55 W7G24     30.30S

$$

VAZ025>031-282200-
SHENANDOAH VALLEY

CITY           SKY/WX    TMP DP  RH WIND       PRES   REMARKS
WINCHESTER*    PTCLDY    36  14  41 NW12      30.25F WCI  27
FRONT ROYAL*   FAIR      32  16  51 W9        30.26R WCI  24
LURAY*         CLOUDY    34  21  60 W3        30.26S
NEW MARKET*    FAIR      31  17  55 CALM      30.26S
STAUNTON*      CLOUDY    34  16  48 W6        30.25F
WAYNESBORO*    CLOUDY    32  16  51 W3        30.22F

$$

WVZ021-048>050-054>055-282200-
EASTERN WEST VIRGINIA PANHANDLE

CITY           SKY/WX    TMP DP  RH WIND       PRES   REMARKS
MARTINSBURG    CLEAR     35  13  40 W12       30.25S WCI  27
PETERSBURG*    PTCLDY    32  15  48 W8        30.27F WCI  25

$$

VAZ036>039-050-282200-
CENTRAL FOOTHILLS

CITY           SKY/WX    TMP DP  RH WIND       PRES   REMARKS
CHARLOTTESVILL CLOUDY    37  15  40 VRB3      30.27R
CULPEPER*      PTCLDY    37  18  44 W6        30.28S
ORANGE*        CLOUDY    37  19  48 SW7       30.29R
GORDONSVILLE*  MOCLDY    37  16  42 CALM      30.27R
WARRENTON*     CLOUDY    40  24  51 W8        30.27R

$$

VAZ055>057-282200-
NORTH AND CENTRAL PIEDMONT

CITY           SKY/WX    TMP DP  RH WIND       PRES   REMARKS
FREDERICKSBRG* PTCLDY    40  18  41 NW10      30.27S
STAFFORD*      PTCLDY    37  15  40 NW7       30.33R

$$

NCZ024-NYZ072-PAZ021-071-VAZ022-071-282200-
OTHER REGIONAL OBSERVATIONS

CITY           SKY/WX    TMP DP  RH WIND       PRES   REMARKS
NEW YORK CITY  CLEAR     33  12  41 NW9G20    30.21R WCI  25
PHILADELPHIA   PTCLDY    37  15  40 W17G26    30.24R WCI  27
PITTSBURGH     MOCLDY    27  15  61 SW10      30.23F WCI  17
ROANOKE        MOCLDY    35  17  47 NW7       30.28F
RICHMOND       MOCLDY    42  17  36 NW10      30.28R
RALEIGH        PTCLDY    43  19  38 CALM      30.29F

$$

ANZ530>537-282200-
MARINE OBSERVATIONS

STATION/POSITION TIME  TEMP    WIND        PRES
                       AIR SEA DIR/SP/G
                 (UTC) (F)     (DEG/KT/KT) (MB)
THOMAS PT LIGHT  2100   37 46  300/ 11/ 14 1025.9R
BALT KEY BRIDGE  2100   37     290/ 14/ 18 1024.5F
COVE POINT       2100   37     330/ 11/ 13 1024.9R
LEWISETTA        2100   39 46  320/ 11/ 14 1025.1R
SOLOMONS ISLAND  2100      48                N/A
PINEY POINT      2100          330/ 17/ 20   N/A

$$




USA.gov is the U.S. government's official web portal to all federal, state and local government web resources and services.